CW5752 Weather Reports


time (UTC)temp
F
wind
direction
speed
knots
gust
knots
rain 1hr
in
rain 24hr
in
rain mn
in
humidity
%
barometer
mb
20260503222522 70 187 4.3 13.0 0.00 0.00 0.00 39 1011.7
20260503221517 70 177 4.3 11.3 0.00 0.00 0.00 38 1011.7
20260503220516 71 185 4.3 12.2 0.00 0.00 0.00 39 1011.8
20260503215521 71 179 3.5 12.2 0.00 0.00 0.00 39 1012.0
20260503214522 71 187 4.3 13.9 0.00 0.00 0.00 37 1012.0
20260503213522 71 187 4.3 12.2 0.00 0.00 0.00 39 1012.2
20260503212522 70 166 3.5 11.3 0.00 0.00 0.00 38 1012.5
20260503211542 71 184 3.5 12.2 0.00 0.00 0.00 38 1012.9
20260503210517 70 168 3.5 13.0 0.00 0.00 0.00 39 1013.2
20260503205521 70 199 6.1 15.6 0.00 0.00 0.00 37 1013.5
20260503204522 70 174 2.6 12.2 0.00 0.00 0.00 40 1013.6
20260503203522 70 189 3.5 11.3 0.00 0.00 0.00 40 1013.8
20260503202602 70 189 3.5 9.6 0.00 0.00 0.00 38 1014.1
20260503201522 71 212 6.1 13.9 0.00 0.01 0.00 40 1014.6
20260503200522 69 176 4.3 13.0 0.00 0.01 0.00 39 1014.8
20260503195517 70 199 5.2 15.6 0.00 0.01 0.00 38 1015.2
20260503194522 70 214 5.2 12.2 0.00 0.03 0.00 37 1015.5
20260503193522 69 225 6.1 13.0 0.00 0.03 0.00 38 1015.7
20260503192542 69 187 4.3 11.3 0.00 0.03 0.00 40 1015.8
20260503191542 69 194 6.1 12.2 0.00 0.03 0.00 38 1016.2
20260503190522 68 199 6.1 13.9 0.00 0.03 0.00 40 1016.4
20260503185537 68 178 3.5 10.4 0.00 0.03 0.00 43 1016.5
20260503184517 68 186 5.2 12.2 0.00 0.03 0.00 42 1016.7
20260503183521 68 197 3.5 10.4 0.00 0.03 0.00 41 1016.9
20260503182542 68 198 5.2 12.2 0.00 0.03 0.00 42 1017.1
20260503181521 68 228 5.2 11.3 0.00 0.03 0.00 44 1017.4
20260503180521 67 198 3.5 11.3 0.00 0.03 0.00 47 1017.5
20260503175522 66 186 4.3 12.2 0.00 0.03 0.00 48 1017.7
20260503174516 65 177 3.5 10.4 0.00 0.03 0.00 46 1018.0
20260503173542 64 173 3.5 10.4 0.00 0.03 0.00 48 1018.1
20260503172522 64 177 4.3 13.9 0.00 0.03 0.00 45 1018.4
20260503171522 64 185 4.3 11.3 0.00 0.03 0.00 48 1018.7
20260503170521 63 168 3.5 12.2 0.00 0.03 0.00 47 1019.0
20260503150522 57 183 4.3 10.4 0.00 0.03 0.00 57 1019.7
20260503130521 49 182 0.9 5.2 0.00 0.03 0.00 84 1020.0
20260503110516 41 0.0 0.0 0.00 0.03 0.00 92 1019.7
20260503081521 41 0.0 0.0 0.00 0.03 0.00 92 1019.6
20260503080521 41 0.0 0.0 0.00 0.03 0.00 92 1019.5
20260503072521 42 0.0 0.0 0.00 0.03 0.00 92 1019.8
20260503071521 42 0.0 0.0 0.00 0.03 0.00 92 1019.9
20260503070522 43 0.0 0.0 0.00 0.03 0.00 92 1019.8
20260503054521 43 0.0 0.0 0.00 0.03 0.00 91 1020.0
20260503053521 44 0.0 0.0 0.00 0.03 0.00 91 1020.0
20260503052516 44 0.0 0.0 0.00 0.03 0.00 91 1020.0
20260503051521 43 0.0 0.0 0.00 0.03 0.00 91 1020.0
20260503050541 43 0.0 0.0 0.00 0.03 0.00 90 1019.9
20260503045542 43 0.0 0.0 0.00 0.03 0.03 90 1020.0
20260503044522 43 0.0 0.0 0.00 0.03 0.03 90 1019.8
20260503043542 44 0.0 0.0 0.00 0.03 0.03 90 1019.7
20260503042522 44 0.0 0.0 0.00 0.03 0.03 89 1019.6
20260503041522 44 0.0 0.0 0.00 0.03 0.03 88 1019.6
20260503040517 45 0.0 0.0 0.00 0.03 0.03 88 1019.6
20260503035517 45 0.0 0.0 0.00 0.03 0.03 87 1019.6
20260503034522 46 0.0 0.0 0.00 0.03 0.03 85 1019.7
20260503033522 47 0.0 0.0 0.00 0.03 0.03 85 1019.8
20260503032522 47 0.0 0.0 0.00 0.03 0.03 85 1019.7
20260503031522 47 0.0 0.0 0.00 0.03 0.03 84 1019.7
20260503030522 47 0.0 0.0 0.00 0.03 0.03 84 1019.6
20260503025517 47 0.0 0.0 0.00 0.03 0.03 83 1019.6
20260503024520 48 0.0 0.0 0.00 0.03 0.03 84 1019.7
20260503023522 48 0.0 0.0 0.00 0.03 0.03 82 1019.5
20260503022522 49 0.0 0.0 0.00 0.03 0.03 78 1019.5
20260503021522 48 0.0 0.0 0.00 0.03 0.03 81 1019.3
20260503020520 48 0.0 0.0 0.00 0.03 0.03 82 1019.3
20260503015522 49 0.0 0.0 0.00 0.03 0.03 80 1019.2
20260503014537 50 0.0 0.0 0.00 0.03 0.03 79 1019.0
20260503013522 50 0.0 0.0 0.00 0.03 0.03 77 1019.0
20260503012522 50 0.0 0.0 0.00 0.03 0.03 77 1019.0
20260503011542 51 0.0 0.0 0.00 0.03 0.03 76 1018.8
20260503010542 52 0.0 0.0 0.00 0.03 0.03 74 1018.7
20260503005522 52 0.0 0.0 0.00 0.03 0.03 71 1018.7
20260503004522 53 0.0 0.0 0.00 0.03 0.03 70 1018.6
20260503003517 53 0.0 0.0 0.00 0.03 0.03 69 1018.6
20260503002522 54 0.0 0.0 0.00 0.03 0.03 68 1018.5
20260503001522 55 0.0 0.9 0.00 0.03 0.03 67 1018.5
20260503000522 54 299 0.0 0.9 0.00 0.03 0.03 67 1018.5
20260502235523 54 0.0 0.0 0.00 0.03 0.03 63 1018.3
20260502234522 55 0.0 0.0 0.00 0.03 0.03 65 1018.4
20260502233537 57 299 0.0 2.6 0.00 0.03 0.03 59 1018.4
20260502232516 58 301 0.0 2.6 0.00 0.03 0.03 51 1018.4
20260502231522 58 300 0.9 2.6 0.00 0.03 0.03 53 1018.4
20260502230542 58 299 0.9 4.3 0.00 0.03 0.03 54 1018.4
20260502225522 58 299 0.9 2.6 0.00 0.03 0.03 54 1018.4
20260502224522 58 301 0.9 4.3 0.00 0.03 0.03 57 1018.3
20260502223522 58 323 0.9 3.5 0.00 0.03 0.03 51 1018.4